Time,TemperatureF,DewpointF,PressureIn,WindDirection,WindDirectionDegrees,WindSpeedMPH,WindSpeedGustMPH,Humidity,HourlyPrecipIn,Conditions,Clouds,dailyrainin,SoftwareType,DateUTC
2013-03-10 00:00:00,48.3,30.5,30.33,East,80,0.0,0.0,50,0.00,,---,0.00,VWS V14.01,2013-03-10 05:00:00,
2013-03-10 00:05:00,48.5,30.2,30.33,East,80,0.0,0.0,49,0.00,,---,0.00,VWS V14.01,2013-03-10 05:05:00,
2013-03-10 00:10:00,48.8,30.5,30.33,East,79,0.0,0.0,49,0.00,,---,0.00,VWS V14.01,2013-03-10 05:10:00,
2013-03-10 00:15:00,48.7,30.4,30.33,East,80,0.0,0.0,49,0.00,,---,0.00,VWS V14.01,2013-03-10 05:15:00,
2013-03-10 00:20:00,48.7,30.4,30.33,East,79,0.0,0.0,49,0.00,,---,0.00,VWS V14.01,2013-03-10 05:20:00,
2013-03-10 00:25:00,48.4,30.6,30.33,East,80,0.0,0.0,50,0.00,,---,0.00,VWS V14.01,2013-03-10 05:25:00,
2013-03-10 00:30:00,48.1,30.4,30.33,East,79,0.0,0.0,50,0.00,,---,0.00,VWS V14.01,2013-03-10 05:30:00,
2013-03-10 00:35:00,47.9,30.2,30.33,East,80,0.0,0.0,50,0.00,,---,0.00,VWS V14.01,2013-03-10 05:35:00,
2013-03-10 00:40:00,47.8,30.6,30.34,East,80,0.0,0.0,51,0.00,,---,0.00,VWS V14.01,2013-03-10 05:40:00,
2013-03-10 00:45:00,46.1,32.2,30.34,East,80,0.0,0.0,58,0.00,,---,0.00,VWS V14.01,2013-03-10 05:45:00,
2013-03-10 00:50:00,44.8,30.5,30.34,East,80,0.0,0.0,57,0.00,,---,0.00,VWS V14.01,2013-03-10 05:50:00,
2013-03-10 00:55:00,44.4,29.7,30.34,East,80,0.0,0.0,56,0.00,,---,0.00,VWS V14.01,2013-03-10 05:55:00,
2013-03-10 01:00:00,45.6,30.4,30.34,East,79,0.0,0.0,55,0.00,,---,0.00,VWS V14.01,2013-03-10 06:00:00,
2013-03-10 01:05:00,46.5,30.8,30.34,East,79,0.0,0.0,54,0.00,,---,0.00,VWS V14.01,2013-03-10 06:05:00,
2013-03-10 01:10:00,46.3,30.6,30.34,East,80,0.0,0.0,54,0.00,,---,0.00,VWS V14.01,2013-03-10 06:10:00,
2013-03-10 01:15:00,46.3,30.6,30.34,East,97,0.0,0.0,54,0.00,,---,0.00,VWS V14.01,2013-03-10 06:15:00,
2013-03-10 01:20:00,46.1,30.4,30.34,East,97,0.0,0.0,54,0.00,,---,0.00,VWS V14.01,2013-03-10 06:20:00,
2013-03-10 01:25:00,45.3,31.4,30.34,East,96,0.0,0.0,58,0.00,,---,0.00,VWS V14.01,2013-03-10 06:25:00,
2013-03-10 01:30:00,43.9,30.9,30.34,East,96,0.0,0.0,60,0.00,,---,0.00,VWS V14.01,2013-03-10 06:30:00,
2013-03-10 01:35:00,43.0,30.9,30.34,East,96,0.0,0.0,62,0.00,,---,0.00,VWS V14.01,2013-03-10 06:35:00,
2013-03-10 01:40:00,42.2,30.9,30.34,East,96,0.0,0.0,64,0.00,,---,0.00,VWS V14.01,2013-03-10 06:40:00,
2013-03-10 01:45:00,42.2,30.9,30.34,East,97,0.0,0.0,64,0.00,,---,0.00,VWS V14.01,2013-03-10 06:45:00,
2013-03-10 01:50:00,42.0,31.1,30.34,East,97,0.0,0.0,65,0.00,,---,0.00,VWS V14.01,2013-03-10 06:50:00,
2013-03-10 01:55:00,42.0,30.7,30.34,East,97,0.0,0.0,64,0.00,,---,0.00,VWS V14.01,2013-03-10 06:55:00,
2013-03-10 03:00:00,41.9,30.2,30.33,East,97,0.0,0.0,63,0.00,,---,0.00,VWS V14.01,2013-03-10 07:00:00,
2013-03-10 03:05:00,41.5,29.5,30.33,East,96,0.0,0.0,62,0.00,,---,0.00,VWS V14.01,2013-03-10 07:05:00,
2013-03-10 03:10:00,41.5,30.2,30.33,East,97,0.0,0.0,64,0.00,,---,0.00,VWS V14.01,2013-03-10 07:10:00,
2013-03-10 03:15:00,41.4,30.1,30.33,East,96,0.0,0.0,64,0.00,,---,0.00,VWS V14.01,2013-03-10 07:15:00,
2013-03-10 03:20:00,41.2,30.0,30.33,East,96,0.0,0.0,64,0.00,,---,0.00,VWS V14.01,2013-03-10 07:20:00,
2013-03-10 03:25:00,41.2,30.0,30.32,East,97,0.0,0.0,64,0.00,,---,0.00,VWS V14.01,2013-03-10 07:25:00,
2013-03-10 03:30:00,42.2,30.5,30.32,East,96,0.0,0.0,63,0.00,,---,0.00,VWS V14.01,2013-03-10 07:30:00,
2013-03-10 03:35:00,43.2,30.7,30.32,East,96,0.0,0.0,61,0.00,,---,0.00,VWS V14.01,2013-03-10 07:35:00,
2013-03-10 03:40:00,43.3,30.4,30.32,East,97,0.0,0.0,60,0.00,,---,0.00,VWS V14.01,2013-03-10 07:40:00,
2013-03-10 03:45:00,43.3,30.8,30.31,East,96,0.0,0.0,61,0.00,,---,0.00,VWS V14.01,2013-03-10 07:45:00,
2013-03-10 03:50:00,43.3,30.8,30.31,East,97,0.0,0.0,61,0.00,,---,0.00,VWS V14.01,2013-03-10 07:50:00,
2013-03-10 03:55:00,43.7,30.7,30.31,East,96,0.0,0.0,60,0.00,,---,0.00,VWS V14.01,2013-03-10 07:55:00,
2013-03-10 04:00:00,43.8,30.8,30.31,East,97,0.0,0.0,60,0.00,,---,0.00,VWS V14.01,2013-03-10 08:00:00,
2013-03-10 04:05:00,43.6,30.6,30.31,East,97,0.0,0.0,60,0.00,,---,0.00,VWS V14.01,2013-03-10 08:05:00,
2013-03-10 04:10:00,42.9,30.8,30.31,East,96,0.0,0.0,62,0.00,,---,0.00,VWS V14.01,2013-03-10 08:10:00,
2013-03-10 04:14:00,42.0,30.3,30.31,East,97,0.0,0.0,63,0.00,,---,0.00,VWS V14.01,2013-03-10 08:14:00,
2013-03-10 04:19:00,42.7,30.6,30.31,East,87,0.0,0.0,62,0.00,,---,0.00,VWS V14.01,2013-03-10 08:19:00,
2013-03-10 04:24:00,43.5,31.0,30.31,East,88,0.0,0.0,61,0.00,,---,0.00,VWS V14.01,2013-03-10 08:24:00,
2013-03-10 04:29:00,43.6,30.6,30.31,East,88,0.0,0.0,60,0.00,,---,0.00,VWS V14.01,2013-03-10 08:29:00,
2013-03-10 04:34:00,43.9,30.9,30.31,East,88,0.0,0.0,60,0.00,,---,0.00,VWS V14.01,2013-03-10 08:34:00,
2013-03-10 04:39:00,43.8,30.8,30.31,East,87,3.0,3.0,60,0.00,,---,0.00,VWS V14.01,2013-03-10 08:39:00,
2013-03-10 04:44:00,43.6,31.0,30.30,East,90,2.0,2.0,61,0.00,,---,0.00,VWS V14.01,2013-03-10 08:44:00,
2013-03-10 04:49:00,43.9,30.9,30.31,East,92,2.0,3.0,60,0.00,,---,0.00,VWS V14.01,2013-03-10 08:49:00,
2013-03-10 04:54:00,44.0,31.0,30.31,East,92,2.0,3.0,60,0.00,,---,0.00,VWS V14.01,2013-03-10 08:54:00,
2013-03-10 04:59:00,43.8,30.8,30.31,East,93,1.0,1.0,60,0.00,,---,0.00,VWS V14.01,2013-03-10 08:59:00,
2013-03-10 05:04:00,43.7,31.1,30.31,East,92,1.0,1.0,61,0.00,,---,0.00,VWS V14.01,2013-03-10 09:04:00,
2013-03-10 05:09:00,43.5,31.0,30.31,East,92,1.0,1.0,61,0.00,,---,0.00,VWS V14.01,2013-03-10 09:09:00,
2013-03-10 05:14:00,43.7,31.1,30.31,ESE,102,2.0,2.0,61,0.00,,---,0.00,VWS V14.01,2013-03-10 09:14:00,
2013-03-10 05:19:00,43.8,30.8,30.31,East,94,1.0,1.0,60,0.00,,---,0.00,VWS V14.01,2013-03-10 09:19:00,
2013-03-10 05:24:00,43.6,31.0,30.31,East,94,1.0,1.0,61,0.00,,---,0.00,VWS V14.01,2013-03-10 09:24:00,
2013-03-10 05:29:00,43.5,31.0,30.31,East,94,2.0,2.0,61,0.00,,---,0.00,VWS V14.01,2013-03-10 09:29:00,
2013-03-10 05:34:00,43.5,31.0,30.31,East,94,1.0,2.0,61,0.00,,---,0.00,VWS V14.01,2013-03-10 09:34:00,
2013-03-10 05:39:00,43.5,30.5,30.31,East,94,1.0,2.0,60,0.00,,---,0.00,VWS V14.01,2013-03-10 09:39:00,
2013-03-10 05:44:00,43.4,30.9,30.31,East,92,3.0,3.0,61,0.00,,---,0.00,VWS V14.01,2013-03-10 09:44:00,
2013-03-10 05:49:00,43.3,30.8,30.31,East,100,3.0,3.0,61,0.00,,---,0.00,VWS V14.01,2013-03-10 09:49:00,
2013-03-10 05:54:00,43.3,30.8,30.31,East,98,1.0,1.0,61,0.00,,---,0.00,VWS V14.01,2013-03-10 09:54:00,
2013-03-10 05:59:00,43.1,30.6,30.32,East,99,0.0,0.0,61,0.00,,---,0.00,VWS V14.01,2013-03-10 09:59:00,
2013-03-10 06:04:00,42.6,30.1,30.32,East,100,0.0,0.0,61,0.00,,---,0.00,VWS V14.01,2013-03-10 10:04:00,
2013-03-10 06:09:00,41.9,30.2,30.32,East,98,0.0,0.0,63,0.00,,---,0.00,VWS V14.01,2013-03-10 10:09:00,
2013-03-10 06:14:00,41.3,30.4,30.32,East,98,0.0,0.0,65,0.00,,---,0.00,VWS V14.01,2013-03-10 10:14:00,
2013-03-10 06:19:00,41.0,30.9,30.32,East,100,1.0,1.0,67,0.00,,---,0.00,VWS V14.01,2013-03-10 10:19:00,
2013-03-10 06:24:00,40.5,30.4,30.33,East,98,0.0,0.0,67,0.00,,---,0.00,VWS V14.01,2013-03-10 10:24:00,
2013-03-10 06:29:00,40.6,30.1,30.33,East,98,0.0,0.0,66,0.00,,---,0.00,VWS V14.01,2013-03-10 10:29:00,
2013-03-10 06:34:00,40.7,29.9,30.33,East,100,0.0,0.0,65,0.00,,---,0.00,VWS V14.01,2013-03-10 10:34:00,
2013-03-10 06:39:00,40.8,30.3,30.33,East,98,0.0,0.0,66,0.00,,---,0.00,VWS V14.01,2013-03-10 10:39:00,
2013-03-10 06:44:00,41.3,30.8,30.33,East,99,0.0,0.0,66,0.00,,---,0.00,VWS V14.01,2013-03-10 10:44:00,
2013-03-10 06:49:00,41.3,30.8,30.33,East,100,0.0,0.0,66,0.00,,---,0.00,VWS V14.01,2013-03-10 10:49:00,
2013-03-10 06:54:00,41.2,30.3,30.33,East,99,0.0,0.0,65,0.00,,---,0.00,VWS V14.01,2013-03-10 10:54:00,
2013-03-10 06:59:00,41.0,30.1,30.33,East,99,0.0,0.0,65,0.00,,---,0.00,VWS V14.01,2013-03-10 10:59:00,
2013-03-10 07:04:00,41.2,30.3,30.33,East,98,0.0,0.0,65,0.00,,---,0.00,VWS V14.01,2013-03-10 11:04:00,
2013-03-10 07:09:00,41.7,30.4,30.33,ESE,115,0.0,0.0,64,0.00,,---,0.00,VWS V14.01,2013-03-10 11:09:00,
2013-03-10 07:14:00,42.1,30.0,30.33,ESE,114,0.0,0.0,62,0.00,,---,0.00,VWS V14.01,2013-03-10 11:14:00,
2013-03-10 07:19:00,42.2,31.7,30.33,ESE,121,0.0,0.0,66,0.00,,---,0.00,VWS V14.01,2013-03-10 11:19:00,
2013-03-10 07:24:00,41.1,30.6,30.33,ESE,123,0.0,0.0,66,0.00,,---,0.00,VWS V14.01,2013-03-10 11:24:00,
2013-03-10 07:29:00,40.4,30.0,30.33,ESE,121,0.0,0.0,66,0.00,,---,0.00,VWS V14.01,2013-03-10 11:29:00,
2013-03-10 07:34:00,40.4,30.3,30.33,East,88,0.0,0.0,67,0.00,,---,0.00,VWS V14.01,2013-03-10 11:34:00,
2013-03-10 07:39:00,40.4,30.0,30.33,East,94,0.0,0.0,66,0.00,,---,0.00,VWS V14.01,2013-03-10 11:39:00,
2013-03-10 07:44:00,40.4,30.3,30.33,East,90,3.0,3.0,67,0.00,,---,0.00,VWS V14.01,2013-03-10 11:44:00,
2013-03-10 07:49:00,40.6,30.1,30.33,East,96,2.0,2.0,66,0.00,,---,0.00,VWS V14.01,2013-03-10 11:49:00,
2013-03-10 07:54:00,40.9,30.4,30.33,ESE,103,1.0,1.0,66,0.00,,---,0.00,VWS V14.01,2013-03-10 11:54:00,
2013-03-10 07:59:00,41.3,30.8,30.34,ESE,104,0.0,0.0,66,0.00,,---,0.00,VWS V14.01,2013-03-10 11:59:00,
2013-03-10 08:04:00,41.8,32.4,30.34,ESE,104,0.0,0.0,69,0.00,,---,0.00,VWS V14.01,2013-03-10 12:04:00,
2013-03-10 08:09:00,42.0,30.7,30.34,ESE,104,0.0,0.0,64,0.00,,---,0.00,VWS V14.01,2013-03-10 12:09:00,
2013-03-10 08:14:00,42.1,30.8,30.34,ESE,104,0.0,0.0,64,0.00,,---,0.00,VWS V14.01,2013-03-10 12:14:00,
2013-03-10 08:19:00,42.0,30.7,30.34,ESE,103,0.0,0.0,64,0.00,,---,0.00,VWS V14.01,2013-03-10 12:19:00,
2013-03-10 08:24:00,42.0,30.7,30.34,SE,130,0.0,0.0,64,0.00,,---,0.00,VWS V14.01,2013-03-10 12:24:00,
2013-03-10 08:29:00,42.4,30.7,30.34,SE,128,2.0,2.0,63,0.00,,---,0.00,VWS V14.01,2013-03-10 12:29:00,
2013-03-10 08:34:00,43.1,31.4,30.34,ESE,121,1.0,1.0,63,0.00,,---,0.00,VWS V14.01,2013-03-10 12:34:00,
2013-03-10 08:39:00,43.7,31.1,30.34,ESE,116,0.0,1.0,61,0.00,,---,0.00,VWS V14.01,2013-03-10 12:39:00,
2013-03-10 08:44:00,44.6,31.2,30.34,ESE,107,0.0,0.0,59,0.00,,---,0.00,VWS V14.01,2013-03-10 12:44:00,
2013-03-10 08:49:00,45.0,30.7,30.34,ESE,115,2.0,3.0,57,0.00,,---,0.00,VWS V14.01,2013-03-10 12:49:00,
2013-03-10 08:54:00,45.3,31.0,30.34,East,101,3.0,3.0,57,0.00,,---,0.00,VWS V14.01,2013-03-10 12:54:00,
2013-03-10 08:59:00,45.7,30.0,30.34,ESE,109,2.0,2.0,54,0.00,,---,0.00,VWS V14.01,2013-03-10 12:59:00,
2013-03-10 09:04:00,46.1,29.9,30.34,ESE,110,1.0,2.0,53,0.00,,---,0.00,VWS V14.01,2013-03-10 13:04:00,
2013-03-10 09:09:00,46.8,29.6,30.34,SE,130,2.0,3.0,51,0.00,,---,0.00,VWS V14.01,2013-03-10 13:09:00,
2013-03-10 09:14:00,47.4,29.2,30.34,ESE,123,3.0,4.0,49,0.00,,---,0.00,VWS V14.01,2013-03-10 13:14:00,
2013-03-10 09:19:00,47.9,28.7,30.35,ESE,123,4.0,4.0,47,0.00,,---,0.00,VWS V14.01,2013-03-10 13:19:00,
2013-03-10 09:24:00,48.4,29.6,30.34,East,96,2.0,3.0,48,0.00,,---,0.00,VWS V14.01,2013-03-10 13:24:00,
2013-03-10 09:29:00,48.9,29.0,30.34,SSE,150,2.0,3.0,46,0.00,,---,0.00,VWS V14.01,2013-03-10 13:29:00,
2013-03-10 09:34:00,49.3,29.4,30.34,SSE,163,1.0,5.0,46,0.00,,---,0.00,VWS V14.01,2013-03-10 13:34:00,
2013-03-10 09:39:00,49.8,29.3,30.34,SE,128,4.0,7.0,45,0.00,,---,0.00,VWS V14.01,2013-03-10 13:39:00,
2013-03-10 09:44:00,50.2,29.7,30.34,SSW,212,0.0,1.0,45,0.00,,---,0.00,VWS V14.01,2013-03-10 13:44:00,
2013-03-10 09:49:00,51.2,30.6,30.35,SSE,167,6.0,6.0,45,0.00,,---,0.00,VWS V14.01,2013-03-10 13:49:00,
2013-03-10 09:54:00,51.5,30.9,30.35,ESE,118,0.0,2.0,45,0.00,,---,0.00,VWS V14.01,2013-03-10 13:54:00,
2013-03-10 09:59:00,52.1,30.3,30.35,East,101,3.0,3.0,43,0.00,,---,0.00,VWS V14.01,2013-03-10 13:59:00,
2013-03-10 10:04:00,52.3,29.9,30.35,East,94,3.0,5.0,42,0.00,,---,0.00,VWS V14.01,2013-03-10 14:04:00,
2013-03-10 10:09:00,52.6,30.2,30.35,SW,226,3.0,3.0,42,0.00,,---,0.00,VWS V14.01,2013-03-10 14:09:00,
2013-03-10 10:14:00,53.0,30.0,30.36,SSW,195,4.0,5.0,41,0.00,,---,0.00,VWS V14.01,2013-03-10 14:14:00,
2013-03-10 10:19:00,53.4,27.1,30.36,South,182,2.0,4.0,36,0.00,,---,0.00,VWS V14.01,2013-03-10 14:19:00,
2013-03-10 10:24:00,53.8,28.2,30.36,SW,217,3.0,3.0,37,0.00,,---,0.00,VWS V14.01,2013-03-10 14:24:00,
2013-03-10 10:29:00,54.2,27.9,30.36,South,188,4.0,4.0,36,0.00,,---,0.00,VWS V14.01,2013-03-10 14:29:00,
2013-03-10 10:34:00,54.6,28.2,30.36,ESE,106,1.0,1.0,36,0.00,,---,0.00,VWS V14.01,2013-03-10 14:34:00,
2013-03-10 10:39:00,55.0,27.2,30.36,East,91,2.0,2.0,34,0.00,,---,0.00,VWS V14.01,2013-03-10 14:39:00,
2013-03-10 10:44:00,55.3,27.4,30.36,East,89,3.0,3.0,34,0.00,,---,0.00,VWS V14.01,2013-03-10 14:44:00,
2013-03-10 10:49:00,55.0,26.5,30.36,ESE,113,4.0,4.0,33,0.00,,---,0.00,VWS V14.01,2013-03-10 14:49:00,
2013-03-10 10:53:00,55.1,26.5,30.37,SE,135,1.0,3.0,33,0.00,,---,0.00,VWS V14.01,2013-03-10 14:53:00,
2013-03-10 10:58:00,55.5,27.6,30.36,ENE,74,2.0,4.0,34,0.00,,---,0.00,VWS V14.01,2013-03-10 14:58:00,
2013-03-10 11:03:00,55.6,27.0,30.36,ESE,109,1.0,1.0,33,0.00,,---,0.00,VWS V14.01,2013-03-10 15:03:00,
2013-03-10 11:08:00,55.6,26.2,30.36,East,88,3.0,6.0,32,0.00,,---,0.00,VWS V14.01,2013-03-10 15:08:00,
2013-03-10 11:13:00,55.7,27.1,30.37,SSE,157,1.0,5.0,33,0.00,,---,0.00,VWS V14.01,2013-03-10 15:13:00,
2013-03-10 11:18:00,56.2,27.5,30.37,South,171,1.0,4.0,33,0.00,,---,0.00,VWS V14.01,2013-03-10 15:18:00,
2013-03-10 11:23:00,56.8,28.0,30.36,SE,125,1.0,3.0,33,0.00,,---,0.00,VWS V14.01,2013-03-10 15:23:00,
2013-03-10 11:28:00,57.3,28.5,30.36,SSW,200,1.0,2.0,33,0.00,,---,0.00,VWS V14.01,2013-03-10 15:28:00,
2013-03-10 11:33:00,57.7,28.1,30.36,SW,215,3.0,4.0,32,0.00,,---,0.00,VWS V14.01,2013-03-10 15:33:00,
2013-03-10 11:38:00,57.9,27.5,30.35,East,81,3.0,3.0,31,0.00,,---,0.00,VWS V14.01,2013-03-10 15:38:00,
2013-03-10 11:43:00,57.9,28.2,30.35,South,169,5.0,5.0,32,0.00,,---,0.00,VWS V14.01,2013-03-10 15:43:00,
2013-03-10 11:48:00,58.0,26.8,30.35,SW,229,2.0,3.0,30,0.00,,---,0.00,VWS V14.01,2013-03-10 15:48:00,
2013-03-10 11:53:00,58.7,26.5,30.35,South,187,5.0,6.0,29,0.00,,---,0.00,VWS V14.01,2013-03-10 15:53:00,
2013-03-10 11:58:00,59.3,27.9,30.34,ESE,103,1.0,2.0,30,0.00,,---,0.00,VWS V14.01,2013-03-10 15:58:00,
2013-03-10 12:03:00,59.3,27.1,30.34,SW,217,5.0,7.0,29,0.00,,---,0.00,VWS V14.01,2013-03-10 16:03:00,
2013-03-10 12:08:00,59.6,27.3,30.34,South,191,2.0,4.0,29,0.00,,---,0.00,VWS V14.01,2013-03-10 16:08:00,
2013-03-10 12:13:00,59.6,26.5,30.34,SW,222,1.0,3.0,28,0.00,,---,0.00,VWS V14.01,2013-03-10 16:13:00,
2013-03-10 12:18:00,59.8,29.1,30.34,ESE,105,3.0,7.0,31,0.00,,---,0.00,VWS V14.01,2013-03-10 16:18:00,
2013-03-10 12:23:00,59.8,27.5,30.33,SE,140,5.0,7.0,29,0.00,,---,0.00,VWS V14.01,2013-03-10 16:23:00,
2013-03-10 12:28:00,60.1,27.8,30.33,SE,143,3.0,4.0,29,0.00,,---,0.00,VWS V14.01,2013-03-10 16:28:00,
2013-03-10 12:33:00,60.4,26.3,30.34,South,190,2.0,6.0,27,0.00,,---,0.00,VWS V14.01,2013-03-10 16:33:00,
2013-03-10 12:38:00,60.9,25.8,30.33,ENE,57,3.0,4.0,26,0.00,,---,0.00,VWS V14.01,2013-03-10 16:38:00,
2013-03-10 12:43:00,60.7,25.6,30.33,ESE,115,5.0,7.0,26,0.00,,---,0.00,VWS V14.01,2013-03-10 16:43:00,
2013-03-10 12:48:00,60.0,23.1,30.33,ENE,69,7.0,7.0,24,0.00,,---,0.00,VWS V14.01,2013-03-10 16:48:00,
2013-03-10 12:53:00,60.5,21.5,30.33,SW,224,4.0,4.0,22,0.00,,---,0.00,VWS V14.01,2013-03-10 16:53:00,
2013-03-10 12:58:00,61.1,26.0,30.33,East,96,6.0,6.0,26,0.00,,---,0.00,VWS V14.01,2013-03-10 16:58:00,
2013-03-10 13:03:00,61.0,25.0,30.33,ENE,78,3.0,5.0,25,0.00,,---,0.00,VWS V14.01,2013-03-10 17:03:00,
2013-03-10 13:08:00,61.8,24.6,30.32,SSE,163,0.0,3.0,24,0.00,,---,0.00,VWS V14.01,2013-03-10 17:08:00,
2013-03-10 13:13:00,62.0,22.8,30.32,ESE,121,3.0,4.0,22,0.00,,---,0.00,VWS V14.01,2013-03-10 17:13:00,
2013-03-10 13:18:00,62.4,24.1,30.32,SSW,205,5.0,6.0,23,0.00,,---,0.00,VWS V14.01,2013-03-10 17:18:00,
2013-03-10 13:23:00,63.0,23.6,30.32,SE,138,2.0,2.0,22,0.00,,---,0.00,VWS V14.01,2013-03-10 17:23:00,
2013-03-10 13:28:00,63.0,24.6,30.32,SSE,150,0.0,1.0,23,0.00,,---,0.00,VWS V14.01,2013-03-10 17:28:00,
2013-03-10 13:33:00,62.9,23.5,30.32,NNW,338,0.0,1.0,22,0.00,,---,0.00,VWS V14.01,2013-03-10 17:33:00,
2013-03-10 13:38:00,63.3,22.7,30.31,ENE,58,4.0,5.0,21,0.00,,---,0.00,VWS V14.01,2013-03-10 17:38:00,
2013-03-10 13:43:00,62.9,25.6,30.31,East,86,2.0,2.0,24,0.00,,---,0.00,VWS V14.01,2013-03-10 17:43:00,
2013-03-10 13:48:00,63.8,24.2,30.31,SSE,163,2.0,2.0,22,0.00,,---,0.00,VWS V14.01,2013-03-10 17:48:00,
2013-03-10 13:53:00,63.8,24.2,30.30,East,85,3.0,5.0,22,0.00,,---,0.00,VWS V14.01,2013-03-10 17:53:00,
2013-03-10 13:58:00,63.8,25.3,30.30,ESE,111,2.0,3.0,23,0.00,,---,0.00,VWS V14.01,2013-03-10 17:58:00,
2013-03-10 14:03:00,63.6,25.1,30.30,ENE,74,2.0,3.0,23,0.00,,---,0.00,VWS V14.01,2013-03-10 18:03:00,
2013-03-10 14:08:00,64.0,25.5,30.30,East,100,5.0,5.0,23,0.00,,---,0.00,VWS V14.01,2013-03-10 18:08:00,
2013-03-10 14:13:00,64.5,25.9,30.30,SSE,148,2.0,2.0,23,0.00,,---,0.00,VWS V14.01,2013-03-10 18:13:00,
2013-03-10 14:18:00,65.6,25.8,30.29,SSE,162,2.0,4.0,22,0.00,,---,0.00,VWS V14.01,2013-03-10 18:18:00,
2013-03-10 14:23:00,65.8,25.9,30.29,SSW,199,4.0,5.0,22,0.00,,---,0.00,VWS V14.01,2013-03-10 18:23:00,
2013-03-10 14:28:00,65.0,24.1,30.29,East,94,9.0,10.0,21,0.00,,---,0.00,VWS V14.01,2013-03-10 18:28:00,
2013-03-10 14:33:00,64.0,24.4,30.29,SE,133,2.0,3.0,22,0.00,,---,0.00,VWS V14.01,2013-03-10 18:33:00,
2013-03-10 14:38:00,64.2,24.6,30.28,ESE,119,7.0,8.0,22,0.00,,---,0.00,VWS V14.01,2013-03-10 18:38:00,
2013-03-10 14:43:00,64.0,23.3,30.28,ESE,109,2.0,3.0,21,0.00,,---,0.00,VWS V14.01,2013-03-10 18:43:00,
2013-03-10 14:48:00,64.3,24.7,30.28,ENE,71,7.0,7.0,22,0.00,,---,0.00,VWS V14.01,2013-03-10 18:48:00,
2013-03-10 14:53:00,64.5,24.8,30.28,SE,136,2.0,3.0,22,0.00,,---,0.00,VWS V14.01,2013-03-10 18:53:00,
2013-03-10 14:58:00,64.4,23.6,30.28,SSE,164,2.0,2.0,21,0.00,,---,0.00,VWS V14.01,2013-03-10 18:58:00,
2013-03-10 15:03:00,65.1,25.3,30.28,South,191,6.0,6.0,22,0.00,,---,0.00,VWS V14.01,2013-03-10 19:03:00,
2013-03-10 15:08:00,65.8,25.9,30.28,SE,126,2.0,2.0,22,0.00,,---,0.00,VWS V14.01,2013-03-10 19:08:00,
2013-03-10 15:13:00,66.3,25.2,30.27,ESE,111,4.0,4.0,21,0.00,,---,0.00,VWS V14.01,2013-03-10 19:13:00,
2013-03-10 15:18:00,66.8,25.6,30.27,South,179,8.0,8.0,21,0.00,,---,0.00,VWS V14.01,2013-03-10 19:18:00,
2013-03-10 15:23:00,66.5,25.4,30.27,SW,225,5.0,5.0,21,0.00,,---,0.00,VWS V14.01,2013-03-10 19:23:00,
2013-03-10 15:28:00,66.3,24.1,30.27,South,184,3.0,4.0,20,0.00,,---,0.00,VWS V14.01,2013-03-10 19:28:00,
2013-03-10 15:33:00,66.6,26.6,30.27,East,86,7.0,7.0,22,0.00,,---,0.00,VWS V14.01,2013-03-10 19:33:00,
2013-03-10 15:38:00,66.4,25.3,30.27,SW,220,1.0,4.0,21,0.00,,---,0.00,VWS V14.01,2013-03-10 19:38:00,
2013-03-10 15:43:00,66.5,26.5,30.27,ESE,102,3.0,7.0,22,0.00,,---,0.00,VWS V14.01,2013-03-10 19:43:00,
2013-03-10 15:48:00,67.6,26.3,30.27,SSW,203,2.0,2.0,21,0.00,,---,0.00,VWS V14.01,2013-03-10 19:48:00,
2013-03-10 15:53:00,68.1,25.5,30.26,SSW,196,4.0,4.0,20,0.00,,---,0.00,VWS V14.01,2013-03-10 19:53:00,
2013-03-10 15:58:00,67.9,24.1,30.26,SSE,157,3.0,5.0,19,0.00,,---,0.00,VWS V14.01,2013-03-10 19:58:00,
2013-03-10 16:03:00,67.5,23.8,30.26,East,96,3.0,3.0,19,0.00,,---,0.00,VWS V14.01,2013-03-10 20:03:00,
2013-03-10 16:08:00,66.7,23.2,30.26,South,178,3.0,4.0,19,0.00,,---,0.00,VWS V14.01,2013-03-10 20:08:00,
2013-03-10 16:13:00,67.0,23.4,30.26,East,90,7.0,7.0,19,0.00,,---,0.00,VWS V14.01,2013-03-10 20:13:00,
2013-03-10 16:18:00,66.4,22.9,30.26,ESE,122,5.0,5.0,19,0.00,,---,0.00,VWS V14.01,2013-03-10 20:18:00,
2013-03-10 16:23:00,66.6,24.3,30.25,SW,236,5.0,5.0,20,0.00,,---,0.00,VWS V14.01,2013-03-10 20:23:00,
2013-03-10 16:28:00,67.5,22.5,30.25,SE,144,2.0,3.0,18,0.00,,---,0.00,VWS V14.01,2013-03-10 20:28:00,
2013-03-10 16:33:00,67.1,23.5,30.25,ESE,112,1.0,2.0,19,0.00,,---,0.00,VWS V14.01,2013-03-10 20:33:00,
2013-03-10 16:38:00,66.7,24.4,30.25,West,279,1.0,1.0,20,0.00,,---,0.00,VWS V14.01,2013-03-10 20:38:00,
2013-03-10 16:43:00,67.7,24.0,30.25,ENE,70,3.0,3.0,19,0.00,,---,0.00,VWS V14.01,2013-03-10 20:43:00,
2013-03-10 16:48:00,67.2,23.6,30.25,WSW,246,5.0,5.0,19,0.00,,---,0.00,VWS V14.01,2013-03-10 20:48:00,
2013-03-10 16:53:00,67.7,24.0,30.25,South,188,2.0,3.0,19,0.00,,---,0.00,VWS V14.01,2013-03-10 20:53:00,
2013-03-10 16:58:00,68.0,23.0,30.25,South,171,3.0,5.0,18,0.00,,---,0.00,VWS V14.01,2013-03-10 20:58:00,
2013-03-10 17:03:00,68.0,23.0,30.25,East,97,3.0,7.0,18,0.00,,---,0.00,VWS V14.01,2013-03-10 21:03:00,
2013-03-10 17:08:00,66.5,24.2,30.25,WSW,240,1.0,3.0,20,0.00,,---,0.00,VWS V14.01,2013-03-10 21:08:00,
2013-03-10 17:13:00,66.9,23.3,30.25,SW,226,6.0,8.0,19,0.00,,---,0.00,VWS V14.01,2013-03-10 21:13:00,
2013-03-10 17:18:00,67.2,20.9,30.25,SW,236,5.0,5.0,17,0.00,,---,0.00,VWS V14.01,2013-03-10 21:18:00,
2013-03-10 17:23:00,67.1,22.2,30.25,SSW,205,5.0,6.0,18,0.00,,---,0.00,VWS V14.01,2013-03-10 21:23:00,
2013-03-10 17:28:00,67.0,20.8,30.25,SE,128,4.0,4.0,17,0.00,,---,0.00,VWS V14.01,2013-03-10 21:28:00,
2013-03-10 17:33:00,67.1,22.2,30.25,SSE,150,3.0,7.0,18,0.00,,---,0.00,VWS V14.01,2013-03-10 21:33:00,
2013-03-10 17:38:00,67.2,22.3,30.25,SW,225,5.0,5.0,18,0.00,,---,0.00,VWS V14.01,2013-03-10 21:38:00,
2013-03-10 17:43:00,66.8,22.0,30.25,South,179,6.0,8.0,18,0.00,,---,0.00,VWS V14.01,2013-03-10 21:43:00,
2013-03-10 17:48:00,66.5,24.2,30.25,SW,214,2.0,2.0,20,0.00,,---,0.00,VWS V14.01,2013-03-10 21:48:00,
2013-03-10 17:53:00,66.7,21.9,30.25,SSW,211,6.0,6.0,18,0.00,,---,0.00,VWS V14.01,2013-03-10 21:53:00,
2013-03-10 17:58:00,66.6,23.1,30.25,South,173,1.0,4.0,19,0.00,,---,0.00,VWS V14.01,2013-03-10 21:58:00,
2013-03-10 18:03:00,66.9,22.0,30.26,South,179,2.0,2.0,18,0.00,,---,0.00,VWS V14.01,2013-03-10 22:03:00,
2013-03-10 18:08:00,66.9,22.0,30.25,SE,145,5.0,5.0,18,0.00,,---,0.00,VWS V14.01,2013-03-10 22:08:00,
2013-03-10 18:13:00,66.6,20.5,30.25,ESE,112,1.0,3.0,17,0.00,,---,0.00,VWS V14.01,2013-03-10 22:13:00,
2013-03-10 18:18:00,66.0,21.3,30.25,South,178,3.0,3.0,18,0.00,,---,0.00,VWS V14.01,2013-03-10 22:18:00,
2013-03-10 18:23:00,66.0,20.0,30.25,SSW,209,4.0,4.0,17,0.00,,---,0.00,VWS V14.01,2013-03-10 22:23:00,
2013-03-10 18:28:00,65.7,21.1,30.26,SSW,192,1.0,1.0,18,0.00,,---,0.00,VWS V14.01,2013-03-10 22:28:00,
2013-03-10 18:33:00,65.2,20.7,30.26,South,174,3.0,3.0,18,0.00,,---,0.00,VWS V14.01,2013-03-10 22:33:00,
2013-03-10 18:38:00,64.6,18.8,30.26,SE,146,4.0,8.0,17,0.00,,---,0.00,VWS V14.01,2013-03-10 22:38:00,
2013-03-10 18:43:00,64.1,18.4,30.25,SSE,155,1.0,1.0,17,0.00,,---,0.00,VWS V14.01,2013-03-10 22:43:00,
2013-03-10 18:48:00,63.8,19.5,30.26,SE,138,0.0,0.0,18,0.00,,---,0.00,VWS V14.01,2013-03-10 22:48:00,
2013-03-10 18:53:00,63.7,19.4,30.26,SSE,157,1.0,1.0,18,0.00,,---,0.00,VWS V14.01,2013-03-10 22:53:00,
2013-03-10 18:58:00,63.4,17.9,30.26,ESE,107,1.0,4.0,17,0.00,,---,0.00,VWS V14.01,2013-03-10 22:58:00,
2013-03-10 19:03:00,62.9,18.8,30.26,SE,136,0.0,0.0,18,0.00,,---,0.00,VWS V14.01,2013-03-10 23:03:00,
2013-03-10 19:08:00,62.4,18.4,30.26,SSE,150,1.0,2.0,18,0.00,,---,0.00,VWS V14.01,2013-03-10 23:08:00,
2013-03-10 19:13:00,61.9,18.0,30.26,SE,130,1.0,1.0,18,0.00,,---,0.00,VWS V14.01,2013-03-10 23:13:00,
2013-03-10 19:18:00,61.5,18.9,30.26,SE,130,0.0,0.0,19,0.00,,---,0.00,VWS V14.01,2013-03-10 23:18:00,
2013-03-10 19:23:00,61.1,18.5,30.26,SE,132,0.0,0.0,19,0.00,,---,0.00,VWS V14.01,2013-03-10 23:23:00,
2013-03-10 19:28:00,60.8,19.5,30.26,SE,132,0.0,0.0,20,0.00,,---,0.00,VWS V14.01,2013-03-10 23:28:00,
2013-03-10 19:33:00,60.5,20.4,30.27,SSE,154,0.0,0.0,21,0.00,,---,0.00,VWS V14.01,2013-03-10 23:33:00,
2013-03-10 19:38:00,60.3,20.2,30.27,SSE,153,0.0,0.0,21,0.00,,---,0.00,VWS V14.01,2013-03-10 23:38:00,
2013-03-10 19:43:00,59.9,19.9,30.27,SSE,154,0.0,0.0,21,0.00,,---,0.00,VWS V14.01,2013-03-10 23:43:00,
2013-03-10 19:48:00,59.6,20.7,30.27,SE,135,0.0,0.0,22,0.00,,---,0.00,VWS V14.01,2013-03-10 23:48:00,
2013-03-10 19:53:00,59.5,20.6,30.27,SE,135,0.0,0.0,22,0.00,,---,0.00,VWS V14.01,2013-03-10 23:53:00,
2013-03-10 19:58:00,59.2,20.4,30.27,SE,135,0.0,0.0,22,0.00,,---,0.00,VWS V14.01,2013-03-10 23:58:00,
2013-03-10 20:03:00,59.1,20.3,30.27,SE,134,0.0,0.0,22,0.00,,---,0.00,VWS V14.01,2013-03-11 00:03:00,
2013-03-10 20:08:00,59.0,21.3,30.27,ESE,110,0.0,0.0,23,0.00,,---,0.00,VWS V14.01,2013-03-11 00:08:00,
2013-03-10 20:13:00,58.4,21.8,30.26,ESE,117,2.0,2.0,24,0.00,,---,0.00,VWS V14.01,2013-03-11 00:13:00,
2013-03-10 20:18:00,58.2,21.6,30.26,ESE,106,1.0,2.0,24,0.00,,---,0.00,VWS V14.01,2013-03-11 00:18:00,
2013-03-10 20:23:00,58.2,21.6,30.27,ESE,113,2.0,2.0,24,0.00,,---,0.00,VWS V14.01,2013-03-11 00:23:00,
2013-03-10 20:28:00,58.0,22.4,30.26,ESE,117,1.0,2.0,25,0.00,,---,0.00,VWS V14.01,2013-03-11 00:28:00,
2013-03-10 20:33:00,57.9,22.3,30.26,ESE,119,1.0,2.0,25,0.00,,---,0.00,VWS V14.01,2013-03-11 00:33:00,
2013-03-10 20:38:00,57.8,22.2,30.26,ESE,120,2.0,2.0,25,0.00,,---,0.00,VWS V14.01,2013-03-11 00:38:00,
2013-03-10 20:43:00,57.7,22.1,30.26,SE,126,2.0,2.0,25,0.00,,---,0.00,VWS V14.01,2013-03-11 00:43:00,
2013-03-10 20:48:00,57.6,22.1,30.26,SE,130,2.0,2.0,25,0.00,,---,0.00,VWS V14.01,2013-03-11 00:48:00,
2013-03-10 20:53:00,57.6,22.1,30.26,SE,124,1.0,1.0,25,0.00,,---,0.00,VWS V14.01,2013-03-11 00:53:00,
2013-03-10 20:58:00,57.5,22.9,30.26,ESE,123,1.0,1.0,26,0.00,,---,0.00,VWS V14.01,2013-03-11 00:58:00,
2013-03-10 21:03:00,57.4,22.8,30.26,ESE,121,2.0,2.0,26,0.00,,---,0.00,VWS V14.01,2013-03-11 01:03:00,
2013-03-10 21:08:00,57.4,22.8,30.26,ESE,114,1.0,2.0,26,0.00,,---,0.00,VWS V14.01,2013-03-11 01:08:00,
2013-03-10 21:13:00,57.3,22.7,30.26,ESE,119,1.0,1.0,26,0.00,,---,0.00,VWS V14.01,2013-03-11 01:13:00,
2013-03-10 21:18:00,57.0,22.5,30.27,ESE,118,2.0,2.0,26,0.00,,---,0.00,VWS V14.01,2013-03-11 01:18:00,
2013-03-10 21:23:00,56.8,22.3,30.27,ESE,120,0.0,0.0,26,0.00,,---,0.00,VWS V14.01,2013-03-11 01:23:00,
2013-03-10 21:28:00,56.7,22.2,30.27,ESE,120,0.0,0.0,26,0.00,,---,0.00,VWS V14.01,2013-03-11 01:28:00,
2013-03-10 21:33:00,56.5,22.9,30.27,ESE,120,0.0,0.0,27,0.00,,---,0.00,VWS V14.01,2013-03-11 01:33:00,
2013-03-10 21:38:00,56.3,22.8,30.27,ESE,119,0.0,0.0,27,0.00,,---,0.00,VWS V14.01,2013-03-11 01:38:00,
2013-03-10 21:43:00,56.2,22.7,30.27,SE,128,1.0,1.0,27,0.00,,---,0.00,VWS V14.01,2013-03-11 01:43:00,
2013-03-10 21:48:00,56.1,22.6,30.27,SE,128,1.0,2.0,27,0.00,,---,0.00,VWS V14.01,2013-03-11 01:48:00,
2013-03-10 21:53:00,56.1,22.6,30.27,SE,130,2.0,2.0,27,0.00,,---,0.00,VWS V14.01,2013-03-11 01:53:00,
2013-03-10 21:58:00,56.0,23.4,30.28,SE,142,2.0,5.0,28,0.00,,---,0.00,VWS V14.01,2013-03-11 01:58:00,
2013-03-10 22:03:00,55.9,24.1,30.28,SSW,200,2.0,3.0,29,0.00,,---,0.00,VWS V14.01,2013-03-11 02:03:00,
2013-03-10 22:08:00,55.8,24.9,30.28,ESE,114,2.0,2.0,30,0.00,,---,0.00,VWS V14.01,2013-03-11 02:08:00,
2013-03-10 22:13:00,55.3,24.4,30.28,SE,124,1.0,2.0,30,0.00,,---,0.00,VWS V14.01,2013-03-11 02:13:00,
2013-03-10 22:18:00,54.9,24.9,30.28,SE,128,2.0,2.0,31,0.00,,---,0.00,VWS V14.01,2013-03-11 02:18:00,
2013-03-10 22:23:00,54.6,24.6,30.28,SSE,149,1.0,2.0,31,0.00,,---,0.00,VWS V14.01,2013-03-11 02:23:00,
2013-03-10 22:28:00,54.4,25.2,30.28,SSE,150,2.0,3.0,32,0.00,,---,0.00,VWS V14.01,2013-03-11 02:28:00,
2013-03-10 22:33:00,54.4,25.2,30.28,SE,141,2.0,2.0,32,0.00,,---,0.00,VWS V14.01,2013-03-11 02:33:00,
2013-03-10 22:38:00,54.4,25.2,30.28,SSE,155,1.0,1.0,32,0.00,,---,0.00,VWS V14.01,2013-03-11 02:38:00,
2013-03-10 22:43:00,54.3,25.1,30.29,SE,139,1.0,1.0,32,0.00,,---,0.00,VWS V14.01,2013-03-11 02:43:00,
2013-03-10 22:48:00,54.1,24.9,30.29,SSE,165,1.0,1.0,32,0.00,,---,0.00,VWS V14.01,2013-03-11 02:48:00,
2013-03-10 22:53:00,53.7,25.3,30.29,SSE,168,2.0,2.0,33,0.00,,---,0.00,VWS V14.01,2013-03-11 02:53:00,
2013-03-10 22:58:00,53.8,25.4,30.29,SE,138,1.0,1.0,33,0.00,,---,0.00,VWS V14.01,2013-03-11 02:58:00,
2013-03-10 23:03:00,53.5,25.1,30.29,South,175,2.0,2.0,33,0.00,,---,0.00,VWS V14.01,2013-03-11 03:03:00,
2013-03-10 23:08:00,53.3,25.0,30.29,South,173,2.0,2.0,33,0.00,,---,0.00,VWS V14.01,2013-03-11 03:08:00,
2013-03-10 23:13:00,53.1,25.5,30.29,SSW,200,1.0,2.0,34,0.00,,---,0.00,VWS V14.01,2013-03-11 03:13:00,
2013-03-10 23:18:00,52.9,26.0,30.29,SSW,195,0.0,2.0,35,0.00,,---,0.00,VWS V14.01,2013-03-11 03:18:00,
2013-03-10 23:23:00,52.6,25.8,30.29,SSW,209,1.0,1.0,35,0.00,,---,0.00,VWS V14.01,2013-03-11 03:23:00,
2013-03-10 23:28:00,52.4,25.6,30.29,SSW,203,2.0,2.0,35,0.00,,---,0.00,VWS V14.01,2013-03-11 03:28:00,
2013-03-10 23:33:00,52.3,26.2,30.29,South,176,2.0,2.0,36,0.00,,---,0.00,VWS V14.01,2013-03-11 03:33:00,
2013-03-10 23:38:00,52.2,26.1,30.29,South,175,1.0,2.0,36,0.00,,---,0.00,VWS V14.01,2013-03-11 03:38:00,
2013-03-10 23:43:00,52.0,25.9,30.29,South,179,2.0,3.0,36,0.00,,---,0.00,VWS V14.01,2013-03-11 03:43:00,
2013-03-10 23:48:00,51.9,25.8,30.29,SSE,160,1.0,1.0,36,0.00,,---,0.00,VWS V14.01,2013-03-11 03:48:00,
2013-03-10 23:53:00,51.7,26.3,30.29,SSW,194,1.0,1.0,37,0.00,,---,0.00,VWS V14.01,2013-03-11 03:53:00,
2013-03-10 23:58:00,51.4,26.0,30.29,SSE,168,2.0,2.0,37,0.00,,---,0.00,VWS V14.01,2013-03-11 03:58:00,